Torna al catalogo

OPTUS A3

AUSSAT 3

AttivoComunicazioniGEO
NORAD 18350·PAYLOAD·🇦🇺 Australia

Lanciato Sep 16, 1987 da Guiana Space Centre

Loading…

TLE

AggiornatoSource: Space-Track

Epoca: Sep 14, 2026, 00:08 UTC

1 18350U 87078A   26257.00571644 -.00000185  00000-0  00000-0 0  9991
2 18350  14.3649 350.5955 0004287   6.4745   2.5603  0.98908381 46928

Traccia OPTUS A3 in tempo reale con AllMySat

Download on the App Store